Location: Bremen
(53.0793°N, 8.8017°E)
Time: 13:14:29
(UTC+02:00)

N. Korean satellite - Visible Passes

Search period start: 26 October 2021 00:00
Search period end: 04 November 2021 23:00
Orbit: 450 x 495 km, 97.3° (Epoch: 26 October)

Date Brightness Start Highest point End Pass type
(mag) Time Alt. Az. Time Alt. Az. Time Alt. Az.
26 Oct 7.5 06:36:03 10° NNE 06:39:39 53° E 06:43:13 10° S visible
26 Oct 9.9 18:50:25 10° SW 18:52:52 17° W 18:55:20 10° NW visible
27 Oct 8.9 06:08:14 10° NE 06:11:24 27° E 06:14:31 10° SSE visible
28 Oct 9.9 05:40:55 10° NE 05:43:01 15° E 05:45:06 10° ESE visible
28 Oct 6.6 07:12:59 10° N 07:16:37 60° WNW 07:20:11 10° SSW visible
29 Oct 7.0 06:44:49 10° NNE 06:48:29 67° E 06:52:04 10° S visible
29 Oct 10.0 18:59:44 10° WSW 19:01:44 14° W 19:03:45 10° NW visible
30 Oct 8.5 06:16:53 10° NNE 06:20:14 33° E 06:23:31 10° SSE visible
30 Oct 9.3 18:30:14 10° SSW 18:33:20 26° W 18:36:28 10° NW visible
31 Oct 9.6 04:49:20 10° NE 04:51:51 18° E 04:54:20 10° SE visible
31 Oct 6.8 06:21:48 10° N 06:25:20 48° WNW 06:28:48 10° SW visible
01 Nov 6.6 05:53:32 10° NNE 05:57:12 84° ESE 06:00:48 10° SSW visible
01 Nov 10.2 18:09:12 10° WSW 18:10:32 12° W 18:11:52 10° WNW visible
02 Nov 8.0 05:25:29 10° NNE 05:28:57 40° E 05:32:21 10° S visible
02 Nov 9.6 17:39:11 10° SW 17:42:03 22° W 17:44:57 10° NW visible
03 Nov 9.3 04:57:45 10° NE 05:00:35 21° E 05:03:22 10° SE visible
03 Nov 7.0 06:30:32 10° N 06:33:56 39° WNW 06:37:17 10° SW visible
04 Nov 10.1 04:30:55 10° ENE 04:32:04 11° E 04:33:12 10° ESE visible
04 Nov 6.4 06:02:10 10° NNE 06:05:49 79° WNW 06:09:22 10° SSW visible
